Year,Month,Day,Hour,Minute,Value (Times are PST for temperature in C)
2009,08,22,00,00,13.20
2009,08,22,00,01,13.20
2009,08,22,00,02,13.20
2009,08,22,00,03,13.10
2009,08,22,00,04,13.10
2009,08,22,00,05,13.10
2009,08,22,00,06,13.00
2009,08,22,00,07,13.00
2009,08,22,00,08,13.00
2009,08,22,00,09,12.90
2009,08,22,00,10,12.90
2009,08,22,00,11,12.90
2009,08,22,00,12,12.90
2009,08,22,00,13,12.90
2009,08,22,00,14,12.80
2009,08,22,00,15,12.80
2009,08,22,00,16,12.80
2009,08,22,00,17,12.70
2009,08,22,00,18,12.70
2009,08,22,00,19,12.60
2009,08,22,00,20,12.60
2009,08,22,00,21,12.60
2009,08,22,00,22,12.50
2009,08,22,00,23,12.50
2009,08,22,00,24,12.50
2009,08,22,00,25,12.40
2009,08,22,00,26,12.40
2009,08,22,00,27,12.40
2009,08,22,00,28,12.40
2009,08,22,00,29,12.40
2009,08,22,00,30,12.30
2009,08,22,00,31,12.30
2009,08,22,00,32,12.30
2009,08,22,00,33,12.30
2009,08,22,00,34,12.30
2009,08,22,00,35,12.30
2009,08,22,00,36,12.40
2009,08,22,00,37,12.40
2009,08,22,00,38,12.40
2009,08,22,00,39,12.40
2009,08,22,00,40,12.40
2009,08,22,00,41,12.30
2009,08,22,00,42,12.30
2009,08,22,00,43,12.30
2009,08,22,00,44,12.30
2009,08,22,00,45,12.30
2009,08,22,00,46,12.20
2009,08,22,00,47,12.20
2009,08,22,00,48,12.20
2009,08,22,00,49,12.20
2009,08,22,00,50,12.20
2009,08,22,00,51,12.20
2009,08,22,00,52,12.20
2009,08,22,00,53,12.10
2009,08,22,00,54,12.10
2009,08,22,00,55,12.10
2009,08,22,00,56,12.10
2009,08,22,00,57,12.10
2009,08,22,00,58,12.10
2009,08,22,00,59,12.10
2009,08,22,01,00,12.10
2009,08,22,01,01,12.10
2009,08,22,01,02,12.10
2009,08,22,01,03,12.10
2009,08,22,01,04,12.00
2009,08,22,01,05,12.00
2009,08,22,01,06,12.00
2009,08,22,01,07,12.00
2009,08,22,01,08,12.00
2009,08,22,01,09,12.00
2009,08,22,01,10,12.00
2009,08,22,01,11,12.00
2009,08,22,01,12,12.00
2009,08,22,01,13,12.10
2009,08,22,01,14,12.10
2009,08,22,01,15,12.20
2009,08,22,01,16,12.20
2009,08,22,01,17,12.20
2009,08,22,01,18,12.30
2009,08,22,01,19,12.30
2009,08,22,01,20,12.40
2009,08,22,01,21,12.40
2009,08,22,01,22,12.40
2009,08,22,01,23,12.40
2009,08,22,01,24,12.40
2009,08,22,01,25,12.40
2009,08,22,01,26,12.50
2009,08,22,01,27,12.50
2009,08,22,01,28,12.50
2009,08,22,01,29,12.60
2009,08,22,01,30,12.60
2009,08,22,01,31,12.60
2009,08,22,01,32,12.60
2009,08,22,01,33,12.60
2009,08,22,01,34,12.50
2009,08,22,01,35,12.50
2009,08,22,01,36,12.40
2009,08,22,01,37,12.30
2009,08,22,01,38,12.30
2009,08,22,01,39,12.20
2009,08,22,01,40,12.20
2009,08,22,01,41,12.20
2009,08,22,01,42,12.20
2009,08,22,01,43,12.10
2009,08,22,01,44,12.10
2009,08,22,01,45,12.10
2009,08,22,01,46,12.00
2009,08,22,01,47,12.00
2009,08,22,01,48,12.00
2009,08,22,01,49,11.90
2009,08,22,01,50,11.90
2009,08,22,01,51,11.90
2009,08,22,01,52,11.80
2009,08,22,01,53,11.80
2009,08,22,01,54,11.80
2009,08,22,01,55,11.80
2009,08,22,01,56,11.80
2009,08,22,01,57,11.70
2009,08,22,01,58,11.80
2009,08,22,01,59,11.80
2009,08,22,02,00,11.80
2009,08,22,02,01,11.90
2009,08,22,02,02,11.90
2009,08,22,02,03,11.90
2009,08,22,02,04,11.90
2009,08,22,02,05,11.80
2009,08,22,02,06,11.80
2009,08,22,02,07,11.90
2009,08,22,02,08,11.90
2009,08,22,02,09,11.90
2009,08,22,02,10,11.90
2009,08,22,02,11,11.90
2009,08,22,02,12,11.90
2009,08,22,02,13,11.90
2009,08,22,02,14,11.90
2009,08,22,02,15,12.00
2009,08,22,02,16,12.00
2009,08,22,02,17,12.10
2009,08,22,02,18,12.10
2009,08,22,02,19,12.10
2009,08,22,02,20,12.10
2009,08,22,02,21,12.10
2009,08,22,02,22,12.10
2009,08,22,02,23,12.10
2009,08,22,02,24,12.10
2009,08,22,02,25,12.10
2009,08,22,02,26,12.10
2009,08,22,02,27,12.10
2009,08,22,02,28,12.10
2009,08,22,02,29,12.10
2009,08,22,02,30,12.10
2009,08,22,02,31,12.10
2009,08,22,02,32,12.10
2009,08,22,02,33,12.10
2009,08,22,02,34,12.10
2009,08,22,02,35,12.00
2009,08,22,02,36,12.00
2009,08,22,02,37,11.90
2009,08,22,02,38,11.90
2009,08,22,02,39,11.90
2009,08,22,02,40,11.90
2009,08,22,02,41,11.90
2009,08,22,02,42,12.00
2009,08,22,02,43,12.00
2009,08,22,02,44,12.00
2009,08,22,02,45,12.00
2009,08,22,02,46,12.00
2009,08,22,02,47,12.00
2009,08,22,02,48,12.00
2009,08,22,02,49,11.90
2009,08,22,02,50,11.90
2009,08,22,02,51,11.90
2009,08,22,02,52,11.80
2009,08,22,02,53,11.80
2009,08,22,02,54,11.80
2009,08,22,02,55,11.80
2009,08,22,02,56,11.70
2009,08,22,02,57,11.70
2009,08,22,02,58,11.70
2009,08,22,02,59,11.70
2009,08,22,03,00,11.70
2009,08,22,03,01,11.70
2009,08,22,03,02,11.70
2009,08,22,03,03,11.70
2009,08,22,03,04,11.70
2009,08,22,03,05,11.70
2009,08,22,03,06,11.70
2009,08,22,03,07,11.70
2009,08,22,03,08,11.70
2009,08,22,03,09,11.70
2009,08,22,03,10,11.60
2009,08,22,03,11,11.60
2009,08,22,03,12,11.60
2009,08,22,03,13,11.60
2009,08,22,03,14,11.60
2009,08,22,03,15,11.60
2009,08,22,03,16,11.60
2009,08,22,03,17,11.60
2009,08,22,03,18,11.60
2009,08,22,03,19,11.60
2009,08,22,03,20,11.60
2009,08,22,03,21,11.60
2009,08,22,03,22,11.50
2009,08,22,03,23,11.50
2009,08,22,03,24,11.50
2009,08,22,03,25,11.50
2009,08,22,03,26,11.50
2009,08,22,03,27,11.50
2009,08,22,03,28,11.50
2009,08,22,03,29,11.40
2009,08,22,03,30,11.40
2009,08,22,03,31,11.40
2009,08,22,03,32,11.40
2009,08,22,03,33,11.40
2009,08,22,03,34,11.40
2009,08,22,03,35,11.40
2009,08,22,03,36,11.40
2009,08,22,03,37,11.40
2009,08,22,03,38,11.40
2009,08,22,03,39,11.40
2009,08,22,03,40,11.30
2009,08,22,03,41,11.30
2009,08,22,03,42,11.30
2009,08,22,03,43,11.20
2009,08,22,03,44,11.20
2009,08,22,03,45,11.10
2009,08,22,03,46,11.10
2009,08,22,03,47,11.10
2009,08,22,03,48,11.00
2009,08,22,03,49,11.00
2009,08,22,03,50,11.00
2009,08,22,03,51,10.90
2009,08,22,03,52,11.00
2009,08,22,04,49,10.40
2009,08,22,04,50,10.40
2009,08,22,04,51,10.30
2009,08,22,04,52,10.30
2009,08,22,04,53,10.20
2009,08,22,04,54,10.20
2009,08,22,04,55,10.20
2009,08,22,04,56,10.10
2009,08,22,04,57,10.10
2009,08,22,04,58,10.10
2009,08,22,04,59,10.10
2009,08,22,05,00,10.10
2009,08,22,05,01,10.00
2009,08,22,05,02,10.00
2009,08,22,05,03,10.00
2009,08,22,05,04,10.00
2009,08,22,05,05,10.00
2009,08,22,05,06,9.90
2009,08,22,05,07,9.90
2009,08,22,05,08,9.90
2009,08,22,05,09,9.90
2009,08,22,05,10,9.90
2009,08,22,05,11,9.90
2009,08,22,05,12,9.90
2009,08,22,05,13,9.90
2009,08,22,05,14,9.90
2009,08,22,05,15,9.80
2009,08,22,05,16,9.80
2009,08,22,05,17,9.80
2009,08,22,05,18,9.80
2009,08,22,05,19,9.80
2009,08,22,05,20,9.80
2009,08,22,05,21,9.80
2009,08,22,05,22,9.80
2009,08,22,05,23,9.80
2009,08,22,05,24,9.80
2009,08,22,05,25,9.80
2009,08,22,05,26,9.80
2009,08,22,05,27,9.80
2009,08,22,05,28,9.80
2009,08,22,05,29,9.80
2009,08,22,05,30,9.90
2009,08,22,05,31,9.90
2009,08,22,05,32,9.90
2009,08,22,05,33,9.90
2009,08,22,05,34,10.00
2009,08,22,05,35,10.00
2009,08,22,05,36,10.00
2009,08,22,05,37,10.10
2009,08,22,05,38,10.10
2009,08,22,05,39,10.10
2009,08,22,05,40,10.20
2009,08,22,05,41,10.20
2009,08,22,05,42,10.20
2009,08,22,05,43,10.20
2009,08,22,05,44,10.20
2009,08,22,05,45,10.20
2009,08,22,05,46,10.20
2009,08,22,05,47,10.20
2009,08,22,05,48,10.20
2009,08,22,05,49,10.20
2009,08,22,05,50,10.20
2009,08,22,05,51,10.20
2009,08,22,05,52,10.20
2009,08,22,05,53,10.20
2009,08,22,05,54,10.20
2009,08,22,05,55,10.20
2009,08,22,05,56,10.20
2009,08,22,05,57,10.10
2009,08,22,05,58,10.10
2009,08,22,05,59,10.10
2009,08,22,06,00,10.10
2009,08,22,06,01,10.10
2009,08,22,06,02,10.10
2009,08,22,06,03,10.10
2009,08,22,06,04,10.00
2009,08,22,06,05,10.00
2009,08,22,06,06,10.00
2009,08,22,06,07,10.00
2009,08,22,06,08,10.00
2009,08,22,06,09,10.00
2009,08,22,06,10,10.00
2009,08,22,06,11,10.00
2009,08,22,06,12,10.00
2009,08,22,06,13,10.00
2009,08,22,06,14,10.00
2009,08,22,06,15,10.00
2009,08,22,06,16,10.00
2009,08,22,06,17,10.00
2009,08,22,06,18,10.00
2009,08,22,06,19,10.00
2009,08,22,06,20,10.00
2009,08,22,06,21,9.90
2009,08,22,06,22,9.90
2009,08,22,06,23,9.90
2009,08,22,06,24,9.90
2009,08,22,06,25,9.80
2009,08,22,06,26,9.80
2009,08,22,06,27,9.80
2009,08,22,06,28,9.80
2009,08,22,06,29,9.80
2009,08,22,06,30,9.80
2009,08,22,06,31,9.80
2009,08,22,06,32,9.90
2009,08,22,06,33,9.90
2009,08,22,06,34,10.00
2009,08,22,06,35,10.00
2009,08,22,06,36,10.10
2009,08,22,06,37,10.10
2009,08,22,06,38,10.20
2009,08,22,06,39,10.20
2009,08,22,06,40,10.30
2009,08,22,06,41,10.30
2009,08,22,06,42,10.30
2009,08,22,06,43,10.40
2009,08,22,06,44,10.40
2009,08,22,06,45,10.40
2009,08,22,06,46,10.50
2009,08,22,06,47,10.50
2009,08,22,06,48,10.60
2009,08,22,06,49,10.60
2009,08,22,06,50,10.60
2009,08,22,06,51,10.60
2009,08,22,06,52,10.70
2009,08,22,06,53,10.70
2009,08,22,06,54,10.70
2009,08,22,06,55,10.70
2009,08,22,06,56,10.70
2009,08,22,06,57,10.70
2009,08,22,06,58,10.70
2009,08,22,06,59,10.70
2009,08,22,07,00,10.60
2009,08,22,07,01,10.60
2009,08,22,07,02,10.60
2009,08,22,07,03,10.60
2009,08,22,07,04,10.60
2009,08,22,07,05,10.60
2009,08,22,07,06,10.60
2009,08,22,07,07,10.60
2009,08,22,07,08,10.60
2009,08,22,07,09,10.70
2009,08,22,07,10,10.70
2009,08,22,07,11,10.70
2009,08,22,07,12,10.70
2009,08,22,07,13,10.70
2009,08,22,07,14,10.70
2009,08,22,07,15,10.70
2009,08,22,07,16,10.70
2009,08,22,07,17,10.70
2009,08,22,07,18,10.80
2009,08,22,07,19,10.80
2009,08,22,07,20,10.80
2009,08,22,07,21,10.80
2009,08,22,07,22,10.90
2009,08,22,07,23,10.90
2009,08,22,07,24,10.90
2009,08,22,07,25,11.00
2009,08,22,07,26,11.00
2009,08,22,07,27,11.10
2009,08,22,07,28,11.10
2009,08,22,07,29,11.10
2009,08,22,07,30,11.20
2009,08,22,07,31,11.20
2009,08,22,07,32,11.20
2009,08,22,07,33,11.30
2009,08,22,07,34,11.30
2009,08,22,07,35,11.40
2009,08,22,07,36,11.40
2009,08,22,07,37,11.50
2009,08,22,07,38,11.60
2009,08,22,07,39,11.60
2009,08,22,07,40,11.70
2009,08,22,07,41,11.80
2009,08,22,07,42,11.90
2009,08,22,07,43,12.00
2009,08,22,07,44,12.10
2009,08,22,07,45,12.20
2009,08,22,07,46,12.30
2009,08,22,07,47,12.30
2009,08,22,07,48,12.40
2009,08,22,07,49,12.50
2009,08,22,07,50,12.60
2009,08,22,07,51,12.70
2009,08,22,07,52,12.80
2009,08,22,07,53,12.90
2009,08,22,07,54,12.90
2009,08,22,07,55,13.00
2009,08,22,07,56,13.10
2009,08,22,07,57,13.20
2009,08,22,07,58,13.20
2009,08,22,07,59,13.30
2009,08,22,08,00,13.30
2009,08,22,08,01,13.30
2009,08,22,08,02,13.30
2009,08,22,08,03,13.30
2009,08,22,08,04,13.40
2009,08,22,08,05,13.40
2009,08,22,08,06,13.40
2009,08,22,08,07,13.40
2009,08,22,08,08,13.40
2009,08,22,08,09,13.50
2009,08,22,08,10,13.50
2009,08,22,08,11,13.60
2009,08,22,08,12,13.60
2009,08,22,08,13,13.70
2009,08,22,08,14,13.70
2009,08,22,08,15,13.80
2009,08,22,08,16,13.80
2009,08,22,08,17,13.80
2009,08,22,08,18,13.80
2009,08,22,08,19,13.90
2009,08,22,08,20,13.90
2009,08,22,08,21,13.90
2009,08,22,08,22,13.90
2009,08,22,08,23,14.00
2009,08,22,08,24,14.10
2009,08,22,08,25,14.10
2009,08,22,08,26,14.20
2009,08,22,08,27,14.30
2009,08,22,08,28,14.40
2009,08,22,08,29,14.40
2009,08,22,08,30,14.50
2009,08,22,08,31,14.60
2009,08,22,08,32,14.80
2009,08,22,08,33,14.80
2009,08,22,08,34,14.90
2009,08,22,08,35,14.90
2009,08,22,08,36,15.00
2009,08,22,08,37,15.00
2009,08,22,08,38,15.00
2009,08,22,08,39,15.00
2009,08,22,08,40,15.00
2009,08,22,08,41,15.00
2009,08,22,08,42,15.00
2009,08,22,08,43,15.00
2009,08,22,08,44,15.00
2009,08,22,08,45,15.00
2009,08,22,08,46,15.00
2009,08,22,08,47,15.10
2009,08,22,08,48,15.20
2009,08,22,08,49,15.20
2009,08,22,08,50,15.30
2009,08,22,08,51,15.30
2009,08,22,08,52,15.30
2009,08,22,08,53,15.30
2009,08,22,08,54,15.30
2009,08,22,08,55,15.40
2009,08,22,08,56,15.40
2009,08,22,08,57,15.50
2009,08,22,08,58,15.60
2009,08,22,08,59,15.60
2009,08,22,09,00,15.60
2009,08,22,09,01,15.60
2009,08,22,09,02,15.60
2009,08,22,09,03,15.70
2009,08,22,09,04,15.70
2009,08,22,09,05,15.70
2009,08,22,09,06,15.80
2009,08,22,09,07,15.80
2009,08,22,09,08,15.90
2009,08,22,09,09,15.90
2009,08,22,09,10,15.90
2009,08,22,09,11,15.90
2009,08,22,09,12,16.00
2009,08,22,09,13,16.10
2009,08,22,09,14,16.10
2009,08,22,09,15,16.20
2009,08,22,09,16,16.30
2009,08,22,09,17,16.30
2009,08,22,09,18,16.40
2009,08,22,09,19,16.40
2009,08,22,09,20,16.40
2009,08,22,09,21,16.40
2009,08,22,09,22,16.40
2009,08,22,09,23,16.40
2009,08,22,09,24,16.50
2009,08,22,09,25,16.50
2009,08,22,09,26,16.60
2009,08,22,09,27,16.70
2009,08,22,09,28,16.70
2009,08,22,09,29,16.80
2009,08,22,09,30,17.00
2009,08,22,09,31,17.10
2009,08,22,09,32,17.20
2009,08,22,09,33,17.30
2009,08,22,09,34,17.30
2009,08,22,09,35,17.30
2009,08,22,09,36,17.30
2009,08,22,09,37,17.30
2009,08,22,09,38,17.40
2009,08,22,09,39,17.50
2009,08,22,09,40,17.50
2009,08,22,09,41,17.60
2009,08,22,09,42,17.60
2009,08,22,09,43,17.60
2009,08,22,09,44,17.60
2009,08,22,09,45,17.60
2009,08,22,09,46,17.60
2009,08,22,09,47,17.60
2009,08,22,09,48,17.60
2009,08,22,09,49,17.60
2009,08,22,09,50,17.60
2009,08,22,09,51,17.40
2009,08,22,09,52,17.30
2009,08,22,09,53,17.20
2009,08,22,09,54,17.10
2009,08,22,09,55,17.10
2009,08,22,09,56,17.00
2009,08,22,09,57,17.10
2009,08,22,09,58,17.20
2009,08,22,09,59,17.30
2009,08,22,10,00,17.50
2009,08,22,10,01,17.60
2009,08,22,10,02,17.80
2009,08,22,10,03,17.80
2009,08,22,10,04,17.90
2009,08,22,10,05,17.90
2009,08,22,10,06,17.90
2009,08,22,10,07,17.90
2009,08,22,10,08,17.80
2009,08,22,10,09,17.70
2009,08,22,10,10,17.50
2009,08,22,10,11,17.40
2009,08,22,10,12,17.30
2009,08,22,10,13,17.20
2009,08,22,10,14,17.20
2009,08,22,10,15,17.20
2009,08,22,10,16,17.30
2009,08,22,10,17,17.20
2009,08,22,10,18,17.20
2009,08,22,10,19,17.30
2009,08,22,10,20,17.40
2009,08,22,10,21,17.50
2009,08,22,10,22,17.50
2009,08,22,10,23,17.60
2009,08,22,10,24,17.60
2009,08,22,10,25,17.60
2009,08,22,10,26,17.60
2009,08,22,10,27,17.60
2009,08,22,10,28,17.60
2009,08,22,10,29,17.60
2009,08,22,10,30,17.50
2009,08,22,10,31,17.40
2009,08,22,10,32,17.40
2009,08,22,10,33,17.40
2009,08,22,10,34,17.50
2009,08,22,10,35,17.60
2009,08,22,10,36,17.70
2009,08,22,10,37,17.70
2009,08,22,10,38,17.80
2009,08,22,10,39,17.80
2009,08,22,10,40,17.90
2009,08,22,10,41,18.00
2009,08,22,10,42,18.10
2009,08,22,10,43,18.10
2009,08,22,10,44,18.10
2009,08,22,10,45,18.10
2009,08,22,10,46,18.10
2009,08,22,10,47,18.00
2009,08,22,10,48,18.00
2009,08,22,10,49,18.10
2009,08,22,10,50,18.10
2009,08,22,10,51,18.10
2009,08,22,10,52,18.10
2009,08,22,10,53,18.00
2009,08,22,10,54,17.90
2009,08,22,10,55,17.90
2009,08,22,10,56,17.90
2009,08,22,10,57,17.90
2009,08,22,10,58,18.00
2009,08,22,10,59,18.00
2009,08,22,11,00,17.90
2009,08,22,11,01,17.90
2009,08,22,11,02,17.90
2009,08,22,11,03,17.90
2009,08,22,11,04,18.00
2009,08,22,11,05,18.00
2009,08,22,11,06,18.10
2009,08,22,11,07,18.10
2009,08,22,11,08,18.10
2009,08,22,11,09,18.20
2009,08,22,11,10,18.20
2009,08,22,11,11,18.30
2009,08,22,11,12,18.30
2009,08,22,11,13,18.40
2009,08,22,11,14,18.40
2009,08,22,11,15,18.50
2009,08,22,11,16,18.60
2009,08,22,11,17,18.60
2009,08,22,11,18,18.50
2009,08,22,11,19,18.50
2009,08,22,11,20,18.50
2009,08,22,11,21,18.50
2009,08,22,11,22,18.60
2009,08,22,11,23,18.60
2009,08,22,11,24,18.70
2009,08,22,11,25,18.70
2009,08,22,11,26,18.90
2009,08,22,11,27,18.90
2009,08,22,11,28,18.90
2009,08,22,11,29,18.90
2009,08,22,11,30,18.80
2009,08,22,11,31,18.70
2009,08,22,11,32,18.70
2009,08,22,11,33,18.70
2009,08,22,11,34,18.80
2009,08,22,11,35,18.80
2009,08,22,11,36,18.70
2009,08,22,11,37,18.70
2009,08,22,11,38,18.70
2009,08,22,11,39,18.60
2009,08,22,11,40,18.50
2009,08,22,11,41,18.60
2009,08,22,11,42,18.60
2009,08,22,11,43,18.60
2009,08,22,11,44,18.60
2009,08,22,11,45,18.70
2009,08,22,11,46,18.80
2009,08,22,11,47,18.80
2009,08,22,11,48,18.90
2009,08,22,11,49,19.10
2009,08,22,11,50,19.20
2009,08,22,11,51,19.30
2009,08,22,11,52,19.50
2009,08,22,11,53,19.50
2009,08,22,11,54,19.50
2009,08,22,11,55,19.60
2009,08,22,11,56,19.70
2009,08,22,11,57,19.70
2009,08,22,11,58,19.80
2009,08,22,11,59,19.90
2009,08,22,12,00,20.00
2009,08,22,12,01,20.00
2009,08,22,12,02,20.10
2009,08,22,12,03,20.20
2009,08,22,12,04,20.20
2009,08,22,12,05,20.20
2009,08,22,12,06,20.10
2009,08,22,12,07,20.00
2009,08,22,12,08,20.00
2009,08,22,12,09,19.90
2009,08,22,12,10,19.90
2009,08,22,12,11,19.80
2009,08,22,12,12,19.80
2009,08,22,12,13,19.60
2009,08,22,12,14,19.60
2009,08,22,12,15,19.60
2009,08,22,12,16,19.60
2009,08,22,12,17,19.60
2009,08,22,12,18,19.60
2009,08,22,12,19,19.50
2009,08,22,12,20,19.50
2009,08,22,12,21,19.40
2009,08,22,12,22,19.30
2009,08,22,12,23,19.30
2009,08,22,12,24,19.30
2009,08,22,12,25,19.40
2009,08,22,12,26,19.40
2009,08,22,12,27,19.50
2009,08,22,12,28,19.60
2009,08,22,12,29,19.60
2009,08,22,12,30,19.70
2009,08,22,12,31,19.80
2009,08,22,12,32,19.90
2009,08,22,12,33,20.00
2009,08,22,12,34,20.00
2009,08,22,12,35,20.10
2009,08,22,12,36,20.20
2009,08,22,12,37,20.20
2009,08,22,12,38,20.20
2009,08,22,12,39,20.20
2009,08,22,12,40,20.20
2009,08,22,12,41,20.10
2009,08,22,12,42,20.10
2009,08,22,12,43,20.10
2009,08,22,12,44,20.10
2009,08,22,12,45,20.20
2009,08,22,12,46,20.30
2009,08,22,12,47,20.40
2009,08,22,12,48,20.40
2009,08,22,12,49,20.30
2009,08,22,12,50,20.20
2009,08,22,12,51,20.00
2009,08,22,12,52,19.90
2009,08,22,12,53,19.80
2009,08,22,12,54,19.70
2009,08,22,12,55,19.80
2009,08,22,12,56,19.80
2009,08,22,12,57,19.80
2009,08,22,12,58,19.80
2009,08,22,12,59,19.70
2009,08,22,13,00,19.70
2009,08,22,13,01,19.60
2009,08,22,13,02,19.60
2009,08,22,13,03,19.60
2009,08,22,13,04,19.60
2009,08,22,13,05,19.60
2009,08,22,13,06,19.60
2009,08,22,13,07,19.60
2009,08,22,13,08,19.80
2009,08,22,13,09,19.90
2009,08,22,13,10,19.90
2009,08,22,13,11,20.00
2009,08,22,13,12,20.10
2009,08,22,13,13,20.20
2009,08,22,13,14,20.20
2009,08,22,13,15,20.20
2009,08,22,13,16,20.10
2009,08,22,13,17,20.10
2009,08,22,13,18,20.10
2009,08,22,13,19,20.10
2009,08,22,13,20,20.10
2009,08,22,13,21,20.10
2009,08,22,13,22,20.10
2009,08,22,13,23,20.00
2009,08,22,13,24,20.00
2009,08,22,13,25,19.90
2009,08,22,13,26,19.90
2009,08,22,13,27,20.00
2009,08,22,13,28,20.00
2009,08,22,13,29,20.20
2009,08,22,13,30,20.20
2009,08,22,13,31,20.10
2009,08,22,13,32,20.10
2009,08,22,13,33,20.10
2009,08,22,13,34,20.10
2009,08,22,13,35,20.00
2009,08,22,13,36,20.00
2009,08,22,13,37,20.00
2009,08,22,13,38,20.10
2009,08,22,13,39,20.10
2009,08,22,13,40,20.10
2009,08,22,13,41,19.90
2009,08,22,13,42,20.00
2009,08,22,13,43,20.10
2009,08,22,13,44,20.10
2009,08,22,13,45,20.10
2009,08,22,13,46,20.10
2009,08,22,13,47,20.20
2009,08,22,13,48,20.40
2009,08,22,13,49,20.40
2009,08,22,13,50,20.60
2009,08,22,13,51,20.60
2009,08,22,13,52,20.70
2009,08,22,13,53,20.80
2009,08,22,13,54,20.90
2009,08,22,13,55,20.90
2009,08,22,13,56,20.90
2009,08,22,13,57,20.90
2009,08,22,13,58,21.00
2009,08,22,13,59,21.00
2009,08,22,14,00,20.90
2009,08,22,14,01,20.80
2009,08,22,14,02,20.80
2009,08,22,14,03,20.80
2009,08,22,14,04,20.80
2009,08,22,14,05,20.80
2009,08,22,14,06,20.80
2009,08,22,14,07,20.60
2009,08,22,14,08,20.40
2009,08,22,14,09,20.30
2009,08,22,14,10,20.30
2009,08,22,14,11,20.20
2009,08,22,14,12,20.20
2009,08,22,14,13,20.30
2009,08,22,14,14,20.30
2009,08,22,14,15,20.30
2009,08,22,14,16,20.30
2009,08,22,14,17,20.40
2009,08,22,14,18,20.40
2009,08,22,14,19,20.50
2009,08,22,14,20,20.60
2009,08,22,14,21,20.60
2009,08,22,14,22,20.60
2009,08,22,14,23,20.60
2009,08,22,14,24,20.60
2009,08,22,14,25,20.60
2009,08,22,14,26,20.60
2009,08,22,14,27,20.70
2009,08,22,14,28,20.80
2009,08,22,14,29,20.80
2009,08,22,14,30,20.80
2009,08,22,14,31,20.70
2009,08,22,14,32,20.70
2009,08,22,14,33,20.70
2009,08,22,14,34,20.70
2009,08,22,14,35,20.70
2009,08,22,14,36,20.70
2009,08,22,14,37,20.80
2009,08,22,14,38,20.80
2009,08,22,14,39,20.90
2009,08,22,14,40,20.90
2009,08,22,14,41,20.90
2009,08,22,14,42,20.90
2009,08,22,14,43,21.00
2009,08,22,14,44,21.00
2009,08,22,14,45,20.90
2009,08,22,14,46,20.80
2009,08,22,14,47,20.80
2009,08,22,14,48,20.80
2009,08,22,14,49,20.80
2009,08,22,14,50,20.80
2009,08,22,14,51,20.70
2009,08,22,14,52,20.60
2009,08,22,14,53,20.50
2009,08,22,14,54,20.50
2009,08,22,14,55,20.60
2009,08,22,14,56,20.70
2009,08,22,14,57,20.70
2009,08,22,14,58,20.60
2009,08,22,14,59,20.60
2009,08,22,15,00,20.40
2009,08,22,15,01,20.30
2009,08,22,15,02,20.10
2009,08,22,15,03,20.00
2009,08,22,15,04,20.00
2009,08,22,15,05,19.90
2009,08,22,15,06,19.90
2009,08,22,15,07,19.90
2009,08,22,15,08,19.90
2009,08,22,15,09,19.90
2009,08,22,15,10,19.90
2009,08,22,15,11,19.80
2009,08,22,15,12,19.80
2009,08,22,15,13,19.80
2009,08,22,15,14,19.90
2009,08,22,15,15,19.90
2009,08,22,15,16,19.90
2009,08,22,15,17,19.90
2009,08,22,15,18,19.90
2009,08,22,15,19,19.80
2009,08,22,15,20,19.80
2009,08,22,15,21,19.80
2009,08,22,15,22,19.80
2009,08,22,15,23,19.90
2009,08,22,15,24,19.80
2009,08,22,15,25,19.80
2009,08,22,15,26,19.90
2009,08,22,15,27,19.90
2009,08,22,15,28,20.10
2009,08,22,15,29,20.20
2009,08,22,15,30,20.30
2009,08,22,15,31,20.50
2009,08,22,15,32,20.60
2009,08,22,15,33,20.70
2009,08,22,15,34,20.80
2009,08,22,15,35,20.70
2009,08,22,15,36,20.60
2009,08,22,15,37,20.50
2009,08,22,15,38,20.40
2009,08,22,15,39,20.30
2009,08,22,15,40,20.30
2009,08,22,15,41,20.30
2009,08,22,15,42,20.30
2009,08,22,15,43,20.30
2009,08,22,15,44,20.20
2009,08,22,15,45,20.10
2009,08,22,15,46,20.00
2009,08,22,15,47,20.00
2009,08,22,15,48,19.90
2009,08,22,15,49,19.80
2009,08,22,15,50,19.80
2009,08,22,15,51,19.80
2009,08,22,15,52,19.90
2009,08,22,15,53,19.90
2009,08,22,15,54,20.00
2009,08,22,15,55,20.00
2009,08,22,15,56,20.00
2009,08,22,15,57,20.00
2009,08,22,15,58,19.90
2009,08,22,15,59,20.00
2009,08,22,16,00,20.10
2009,08,22,16,01,20.20
2009,08,22,16,02,20.20
2009,08,22,16,03,20.30
2009,08,22,16,04,20.30
2009,08,22,16,05,20.40
2009,08,22,16,06,20.40
2009,08,22,16,07,20.40
2009,08,22,16,08,20.40
2009,08,22,16,09,20.50
2009,08,22,16,10,20.60
2009,08,22,16,11,20.60
2009,08,22,16,12,20.60
2009,08,22,16,13,20.60
2009,08,22,16,14,20.60
2009,08,22,16,15,20.60
2009,08,22,16,16,20.50
2009,08,22,16,17,20.50
2009,08,22,16,18,20.40
2009,08,22,16,19,20.50
2009,08,22,16,20,20.50
2009,08,22,16,21,20.60
2009,08,22,16,22,20.60
2009,08,22,16,23,20.50
2009,08,22,16,24,20.50
2009,08,22,16,25,20.40
2009,08,22,16,26,20.40
2009,08,22,16,27,20.40
2009,08,22,16,28,20.40
2009,08,22,16,29,20.40
2009,08,22,16,30,20.40
2009,08,22,16,31,20.40
2009,08,22,16,32,20.40
2009,08,22,16,33,20.50
2009,08,22,16,34,20.50
2009,08,22,16,35,20.50
2009,08,22,16,36,20.50
2009,08,22,16,37,20.40
2009,08,22,16,38,20.40
2009,08,22,16,39,20.30
2009,08,22,16,40,20.40
2009,08,22,16,41,20.40
2009,08,22,16,42,20.40
2009,08,22,16,43,20.50
2009,08,22,16,44,20.60
2009,08,22,16,45,20.70
2009,08,22,16,46,20.70
2009,08,22,16,47,20.80
2009,08,22,16,48,20.80
2009,08,22,16,49,20.80
2009,08,22,16,50,20.80
2009,08,22,16,51,20.80
2009,08,22,16,52,20.80
2009,08,22,16,53,20.90
2009,08,22,16,54,20.90
2009,08,22,16,55,20.90
2009,08,22,16,56,20.90
2009,08,22,16,57,20.90
2009,08,22,16,58,20.80
2009,08,22,16,59,20.80
2009,08,22,17,00,20.80
2009,08,22,17,01,20.80
2009,08,22,17,02,20.80
2009,08,22,17,03,20.80
2009,08,22,17,04,20.80
2009,08,22,17,05,20.70
2009,08,22,17,06,20.70
2009,08,22,17,07,20.70
2009,08,22,17,08,20.70
2009,08,22,17,09,20.70
2009,08,22,17,10,20.80
2009,08,22,17,11,20.80
2009,08,22,17,12,20.80
2009,08,22,17,13,20.90
2009,08,22,17,14,20.90
2009,08,22,17,15,20.90
2009,08,22,17,16,20.90
2009,08,22,17,17,21.00
2009,08,22,17,18,20.90
2009,08,22,17,19,20.90
2009,08,22,17,20,20.90
2009,08,22,17,21,20.90
2009,08,22,17,22,20.90
2009,08,22,17,23,20.80
2009,08,22,17,24,20.80
2009,08,22,17,25,20.80
2009,08,22,17,26,20.80
2009,08,22,17,27,20.70
2009,08,22,17,28,20.60
2009,08,22,17,29,20.50
2009,08,22,17,30,20.40
2009,08,22,17,31,20.30
2009,08,22,17,32,20.30
2009,08,22,17,33,20.30
2009,08,22,17,34,20.40
2009,08,22,17,35,20.40
2009,08,22,17,36,20.40
2009,08,22,17,37,20.40
2009,08,22,17,38,20.40
2009,08,22,17,39,20.50
2009,08,22,17,40,20.60
2009,08,22,17,41,20.70
2009,08,22,17,42,20.80
2009,08,22,17,43,20.80
2009,08,22,17,44,20.70
2009,08,22,17,45,20.70
2009,08,22,17,46,20.70
2009,08,22,17,47,20.60
2009,08,22,17,48,20.60
2009,08,22,17,49,20.50
2009,08,22,17,50,20.50
2009,08,22,17,51,20.50
2009,08,22,17,52,20.50
2009,08,22,17,53,20.50
2009,08,22,17,54,20.40
2009,08,22,17,55,20.40
2009,08,22,17,56,20.40
2009,08,22,17,57,20.30
2009,08,22,17,58,20.30
2009,08,22,17,59,20.30
2009,08,22,18,00,20.30
2009,08,22,18,01,20.30
2009,08,22,18,02,20.30
2009,08,22,18,03,20.30
2009,08,22,18,04,20.20
2009,08,22,18,05,20.20
2009,08,22,18,06,20.20
2009,08,22,18,07,20.20
2009,08,22,18,08,20.20
2009,08,22,18,09,20.30
2009,08,22,18,10,20.30
2009,08,22,18,11,20.30
2009,08,22,18,12,20.30
2009,08,22,18,13,20.30
2009,08,22,18,14,20.20
2009,08,22,18,15,20.20
2009,08,22,18,16,20.20
2009,08,22,18,17,20.20